Nashua, NH

12:50 PM EDT on October 19, 2019 (GMT -0400)
Boire

Weather History for KASH - May, 2019

Change the Weather History Date:

Thursday, May 16, 2019

  Actual Average Record
Temperature  
Mean Temperature 56 °F -  
Max Temperature 68 °F 68 °F 88 °F (1951)
Min Temperature 43 °F 44 °F 31 °F (1949)
Degree Days  
Heating Degree Days 10    
Growing Degree Days 6 (Base 50)    
Moisture  
Dew Point 43 °F    
Average Humidity 68    
Maximum Humidity 100    
Minimum Humidity 33    
Precipitation  
Precipitation 0.00 in - - ()
Sea Level Pressure  
Sea Level Pressure 29.86 in    
Wind  
Wind Speed 3 mph ()    
Max Wind Speed 12 mph    
Max Gust Speed 16 mph    
Visibility 10.0 miles    
Events Rain    
Averages and records for this station are not official NWS values.
T = Trace of Precipitation, MM = Missing Value Source: Averaged Metar Reports

Daily Weather History Graph

Daily Weather History Graph

Search for Another Location

Airport or City:

Astronomy

May. 16, 2019 Rise Set
Actual Time 5:22 AM EDT 8:02 PM EDT
Civil Twilight 4:50 AM EDT 8:35 PM EDT
Nautical Twilight 4:09 AM EDT 9:16 PM EDT
Astronomical Twilight 3:22 AM EDT 10:03 PM EDT
Moon 5:33 PM EDT (5/16) 4:25 AM EDT (5/16)
Length of Visible Light 15h 45m
Length of Day
14h 40m
Waxing Gibbous, 94% of the Moon is Illuminated
May 16
Waxing Gibbous
May 18
Full
May 26
Last Quarter
Jun 3
New
Jun 10
First Quarter

Hourly Weather History & Observations

Time (EDT) Temp. Windchill Dew Point Humidity Pressure Visibility Wind Dir Wind Speed Gust Speed Precip Events Conditions
12:56 AM 50.0 °F - 46.9 °F 89% 29.84 in 10.0 mi Calm Calm - N/A   Overcast
1:56 AM 48.9 °F - 48.9 °F 100% 29.83 in 10.0 mi Calm Calm - 0.00 in Rain Light Rain
2:56 AM 48.0 °F - 48.0 °F 100% 29.83 in 10.0 mi Calm Calm - 0.00 in   Overcast
3:56 AM 46.0 °F - 46.0 °F 100% 29.82 in 10.0 mi Calm Calm - N/A   Overcast
4:56 AM 44.1 °F - 44.1 °F 100% 29.83 in 10.0 mi Calm Calm - N/A   Clear
5:56 AM 43.0 °F 41.3 °F 43.0 °F 100% 29.84 in 10.0 mi West 3.5 mph - N/A   Mostly Cloudy
6:56 AM 46.9 °F - 46.0 °F 97% 29.86 in 10.0 mi Calm Calm - N/A   Partly Cloudy
7:56 AM 51.1 °F - 46.0 °F 83% 29.87 in 10.0 mi Calm Calm - N/A   Clear
8:56 AM 55.9 °F - 45.0 °F 67% 29.88 in 10.0 mi West 3.5 mph - N/A   Mostly Cloudy
9:56 AM 60.1 °F - 44.1 °F 55% 29.87 in 10.0 mi Variable 3.5 mph - N/A   Mostly Cloudy
10:56 AM 62.1 °F - 41.0 °F 46% 29.86 in 10.0 mi NW 9.2 mph - N/A   Mostly Cloudy
11:56 AM 64.0 °F - 42.1 °F 45% 29.85 in 10.0 mi Variable 3.5 mph - N/A   Mostly Cloudy
12:56 PM 64.0 °F - 39.0 °F 40% 29.86 in 10.0 mi West 9.2 mph - N/A   Mostly Cloudy
1:56 PM 64.9 °F - 39.0 °F 39% 29.84 in 10.0 mi NNW 9.2 mph - N/A   Mostly Cloudy
2:56 PM 66.9 °F - 39.0 °F 36% 29.82 in 10.0 mi North 8.1 mph - N/A   Mostly Cloudy
3:56 PM 68.0 °F - 37.9 °F 33% 29.82 in 10.0 mi NW 11.5 mph 16.1 mph N/A   Scattered Clouds
4:56 PM 66.9 °F - 37.9 °F 34% 29.84 in 10.0 mi NNW 10.4 mph - N/A   Overcast
5:56 PM 66.0 °F - 39.9 °F 38% 29.85 in 10.0 mi WNW 5.8 mph - 0.00 in   Overcast
6:56 PM 66.0 °F - 39.9 °F 38% 29.86 in 10.0 mi NNW 6.9 mph - N/A   Mostly Cloudy
7:56 PM 62.1 °F - 44.1 °F 52% 29.88 in 10.0 mi East 5.8 mph - N/A   Partly Cloudy
8:56 PM 57.0 °F - 46.0 °F 67% 29.89 in 10.0 mi SE 3.5 mph - N/A   Mostly Cloudy
9:56 PM 52.0 °F - 46.0 °F 80% 29.91 in 10.0 mi Calm Calm - N/A   Clear
10:56 PM 50.0 °F - 46.9 °F 89% 29.91 in 10.0 mi WNW 4.6 mph - N/A   Clear
11:56 PM 48.0 °F - 46.0 °F 93% 29.91 in 10.0 mi Calm Calm - N/A   Clear